When you browse on this site, cookies collect data to enhance your experience and personalize the content and advertising you see.
Visit our Privacy Policy to learn more. By continuing to use the site, you agree to this use of cookies and data.
  • în România
  • Lista ţărilor
  • Pe 7 zile
  • Temperatura apei
  • Hartă satelitară
  • Meteo pe hartă
  • Widget-uri
  • user-avatar
    Intrare

    Meteo pe oră la Gnatowice

    Astăzi, 12 Decembrie, Miercuri

    Timp Temperatura Precipitaţii Vânt Presiune Umiditate
    00:00 -1°C° 0.2 mm 2 m/s 740 mmHg 93%
    01:00 -1°C° 0 mm 2 m/s 740 mmHg 93%
    02:00 -1°C° 0.1 mm 2 m/s 741 mmHg 93%
    03:00 -1°C° 0.1 mm 2 m/s 741 mmHg 94%
    04:00 +1°C° 0.1 mm 1 m/s 741 mmHg 94%
    05:00 -2°C° 0 mm 2 m/s 741 mmHg 94%
    06:00 -2°C° 0 mm 2 m/s 742 mmHg 94%
    07:00 -2°C° 0 mm 2 m/s 742 mmHg 93%
    08:00 -1°C° 0.1 mm 2 m/s 743 mmHg 91%
    09:00 -1°C° 0.1 mm 2 m/s 743 mmHg 89%
    10:00 +1°C° 0.1 mm 2 m/s 743 mmHg 87%
    11:00 +1°C° 0.1 mm 2 m/s 744 mmHg 86%
    12:00 +1°C° 0.1 mm 2 m/s 744 mmHg 84%
    13:00 +1°C° 0.1 mm 2 m/s 744 mmHg 83%
    14:00 +1°C° 0 mm 2 m/s 744 mmHg 85%
    15:00 -1°C° 0 mm 2 m/s 745 mmHg 87%
    16:00 +1°C° 0 mm 1 m/s 745 mmHg 89%
    17:00 +1°C° 0 mm 1 m/s 745 mmHg 90%
    18:00 0°C° 0 mm 1 m/s 745 mmHg 91%
    19:00 0°C° 0 mm 1 m/s 745 mmHg 92%
    20:00 0°C° 0 mm 1 m/s 746 mmHg 92%
    21:00 -1°C° 0 mm 1 m/s 746 mmHg 92%
    22:00 -1°C° 0 mm 1 m/s 746 mmHg 92%
    23:00 0°C° 0 mm 1 m/s 746 mmHg 92%

    Mâine, 13 Decembrie, Joi

    Timp Temperatura Precipitaţii Vânt Presiune Umiditate
    00:00 -2°C° 0 mm 2 m/s 746 mmHg 92%
    01:00 -2°C° 0 mm 2 m/s 746 mmHg 92%
    02:00 -2°C° 0.1 mm 2 m/s 746 mmHg 92%
    03:00 -2°C° 0.1 mm 2 m/s 746 mmHg 92%
    04:00 -2°C° 0.1 mm 2 m/s 746 mmHg 92%
    05:00 -2°C° 0.1 mm 2 m/s 746 mmHg 93%
    06:00 -2°C° 0.1 mm 2 m/s 746 mmHg 93%
    07:00 -2°C° 0.1 mm 2 m/s 746 mmHg 93%
    08:00 -1°C° 0.1 mm 2 m/s 746 mmHg 91%
    09:00 -1°C° 0.1 mm 2 m/s 746 mmHg 90%
    10:00 -1°C° 0.1 mm 2 m/s 746 mmHg 89%
    11:00 -1°C° 0.1 mm 2 m/s 746 mmHg 88%
    12:00 +1°C° 0.1 mm 2 m/s 746 mmHg 87%
    13:00 +1°C° 0.1 mm 2 m/s 746 mmHg 85%
    14:00 +2°C° 0 mm 1 m/s 746 mmHg 87%
    15:00 +1°C° 0 mm 1 m/s 746 mmHg 89%
    16:00 +1°C° 0 mm 1 m/s 746 mmHg 91%
    17:00 +1°C° 0 mm 1 m/s 746 mmHg 91%
    18:00 0°C° 0 mm 1 m/s 746 mmHg 91%
    19:00 0°C° 0 mm 1 m/s 746 mmHg 91%
    20:00 0°C° 0 mm 1 m/s 746 mmHg 91%
    21:00 0°C° 0 mm 1 m/s 746 mmHg 91%
    22:00 0°C° 0 mm 1 m/s 746 mmHg 91%
    23:00 0°C° 0 mm 1 m/s 747 mmHg 90%

    Poimâine, 14 Decembrie, Vineri

    Timp Temperatura Precipitaţii Vânt Presiune Umiditate
    00:00 -1°C° 0 mm 1 m/s 747 mmHg 89%
    01:00 -1°C° 0 mm 1 m/s 747 mmHg 88%
    02:00 -1°C° 0 mm 1 m/s 747 mmHg 88%
    03:00 -1°C° 0 mm 1 m/s 747 mmHg 88%
    04:00 -1°C° 0 mm 1 m/s 747 mmHg 87%
    05:00 -1°C° 0 mm 1 m/s 747 mmHg 87%
    06:00 -1°C° 0 mm 1 m/s 747 mmHg 87%
    07:00 -2°C° 0 mm 1 m/s 747 mmHg 88%
    08:00 -1°C° 0 mm 1 m/s 748 mmHg 84%
    09:00 -1°C° 0 mm 1 m/s 748 mmHg 81%
    10:00 0°C° 0 mm 1 m/s 748 mmHg 78%
    11:00 -2°C° 0 mm 2 m/s 748 mmHg 76%
    12:00 -2°C° 0 mm 2 m/s 748 mmHg 74%
    13:00 -1°C° 0 mm 2 m/s 748 mmHg 72%
    14:00 -2°C° 0 mm 2 m/s 748 mmHg 76%
    15:00 -2°C° 0 mm 2 m/s 748 mmHg 81%
    16:00 -3°C° 0 mm 2 m/s 748 mmHg 85%
    17:00 -3°C° 0 mm 2 m/s 748 mmHg 86%
    18:00 -3°C° 0 mm 2 m/s 748 mmHg 88%
    19:00 -3°C° 0 mm 2 m/s 749 mmHg 89%
    20:00 -3°C° 0 mm 2 m/s 749 mmHg 91%
    21:00 -3°C° 0 mm 2 m/s 749 mmHg 92%
    22:00 -3°C° 0 mm 2 m/s 749 mmHg 93%
    23:00 -3°C° 0 mm 2 m/s 749 mmHg 93%

    15 Decembrie, Sâmbătă

    Timp Temperatura Precipitaţii Vânt Presiune Umiditate
    00:00 -3°C° 0 mm 2 m/s 749 mmHg 93%
    01:00 -3°C° 0 mm 2 m/s 749 mmHg 93%
    02:00 -4°C° 0 mm 3 m/s 749 mmHg 93%
    03:00 -4°C° 0 mm 3 m/s 748 mmHg 94%
    04:00 -4°C° 0 mm 3 m/s 748 mmHg 94%
    05:00 -3°C° 0.1 mm 4 m/s 748 mmHg 92%
    06:00 -3°C° 0.1 mm 4 m/s 749 mmHg 90%
    07:00 -3°C° 0.1 mm 4 m/s 749 mmHg 88%
    08:00 -4°C° 0 mm 5 m/s 749 mmHg 86%
    09:00 -4°C° 0 mm 5 m/s 749 mmHg 84%
    10:00 -4°C° 0 mm 5 m/s 749 mmHg 82%
    11:00 -4°C° 0 mm 5 m/s 749 mmHg 81%
    12:00 -4°C° 0 mm 5 m/s 749 mmHg 79%
    13:00 -2°C° 0 mm 5 m/s 749 mmHg 78%
    14:00 -4°C° 0 mm 5 m/s 748 mmHg 79%
    15:00 -4°C° 0 mm 5 m/s 748 mmHg 80%
    16:00 -4°C° 0 mm 5 m/s 748 mmHg 82%
    17:00 -5°C° 0.1 mm 5 m/s 748 mmHg 82%
    18:00 -5°C° 0.1 mm 5 m/s 748 mmHg 83%
    19:00 -5°C° 0.1 mm 5 m/s 748 mmHg 83%
    20:00 -5°C° 0.1 mm 5 m/s 748 mmHg 84%
    21:00 -5°C° 0.1 mm 5 m/s 748 mmHg 85%
    22:00 -5°C° 0.1 mm 5 m/s 748 mmHg 87%
    23:00 -5°C° 0.3 mm 5 m/s 748 mmHg 88%

    16 Decembrie, Duminică

    Timp Temperatura Precipitaţii Vânt Presiune Umiditate
    00:00 -4°C° 0.3 mm 4 m/s 748 mmHg 89%
    01:00 -4°C° 0.3 mm 4 m/s 747 mmHg 91%
    02:00 -4°C° 0.2 mm 4 m/s 747 mmHg 91%
    03:00 -4°C° 0.2 mm 3 m/s 747 mmHg 92%
    04:00 -2°C° 0.2 mm 3 m/s 747 mmHg 93%
    05:00 -2°C° 0.2 mm 3 m/s 747 mmHg 93%
    06:00 -3°C° 0.2 mm 2 m/s 747 mmHg 93%
    07:00 -3°C° 0.2 mm 2 m/s 746 mmHg 94%
    08:00 -2°C° 0.1 mm 2 m/s 747 mmHg 93%
    09:00 -2°C° 0.1 mm 2 m/s 747 mmHg 92%
    10:00 +1°C° 0.1 mm 1 m/s 747 mmHg 91%
    11:00 +1°C° 0 mm 1 m/s 746 mmHg 91%
    12:00 +2°C° 0 mm 1 m/s 746 mmHg 91%
    13:00 +2°C° 0 mm 1 m/s 746 mmHg 90%
    14:00 +1°C° 0 mm 2 m/s 746 mmHg 92%
    15:00 -1°C° 0 mm 2 m/s 746 mmHg 93%
    16:00 -2°C° 0 mm 2 m/s 745 mmHg 94%
    17:00 -2°C° 0 mm 2 m/s 745 mmHg 94%
    18:00 -2°C° 0 mm 2 m/s 745 mmHg 94%
    19:00 -2°C° 0 mm 2 m/s 745 mmHg 94%
    20:00 -1°C° 0 mm 2 m/s 745 mmHg 93%
    21:00 -1°C° 0 mm 2 m/s 745 mmHg 92%
    22:00 -1°C° 0 mm 2 m/s 745 mmHg 92%
    23:00 +1°C° 0 mm 1 m/s 745 mmHg 91%

    17 Decembrie, Luni

    Timp Temperatura Precipitaţii Vânt Presiune Umiditate
    00:00 +1°C° 0 mm 1 m/s 744 mmHg 90%
    01:00 +1°C° 0 mm 1 m/s 744 mmHg 89%
    02:00 +2°C° 0 mm 1 m/s 744 mmHg 89%
    03:00 +2°C° 0 mm 1 m/s 744 mmHg 89%
    04:00 +1°C° 0 mm 2 m/s 744 mmHg 88%
    05:00 +1°C° 0 mm 2 m/s 744 mmHg 89%
    06:00 +2°C° 0 mm 1 m/s 743 mmHg 89%
    07:00 +2°C° 0 mm 1 m/s 743 mmHg 89%
    08:00 +3°C° 0.1 mm 1 m/s 744 mmHg 89%
    09:00 +3°C° 0.1 mm 1 m/s 744 mmHg 90%
    10:00 +3°C° 0.1 mm 1 m/s 744 mmHg 91%
    11:00 +4°C° 0 mm 1 m/s 744 mmHg 92%
    12:00 +4°C° 0 mm 1 m/s 743 mmHg 92%
    13:00 +4°C° 0 mm 1 m/s 743 mmHg 93%
    14:00 +3°C° 0.2 mm 1 m/s 743 mmHg 93%
    15:00 +3°C° 0.2 mm 1 m/s 743 mmHg 94%
    16:00 +3°C° 0.2 mm 1 m/s 744 mmHg 94%
    17:00 +3°C° 0.2 mm 1 m/s 744 mmHg 94%
    18:00 +2°C° 0.2 mm 1 m/s 744 mmHg 95%
    19:00 +2°C° 0.2 mm 1 m/s 745 mmHg 95%
    20:00 +2°C° 0.1 mm 1 m/s 745 mmHg 95%
    21:00 +1°C° 0.1 mm 2 m/s 746 mmHg 95%
    22:00 +1°C° 0.1 mm 2 m/s 746 mmHg 95%
    23:00 +1°C° 0 mm 2 m/s 746 mmHg 95%
    Arată mai mult